Погода в Рогачёве

Беларусь     53°04′55″N   30°03′11″E
темп.,
°C
ветер,
м/с
пор.,
м/с
влажн.,
%
обл.,
%
осадки,
мм/ч
давл.,
гПа
погр.,
м
13 апреля, вт
вт1300:00+9ю1190100 0.0 102127
03:00+9в009194 0.0 102010
06:00+8в1192100 0.0 102012
09:00+10в1285100 0.0 1020153
12:00+12в2382100 0.0 1019354
15:00+11юв4586100 0.0 1019432
18:00+10ююв3695100 0.3 1018305
21:00+8ююв2496100 0.3 1019113
14 апреля, ср
ср1400:00+9ю2294100 0.0 101752
03:00+8юв2295100 0.0 101739
06:00+8ююв2494100 0.0 101684
09:00+9юв3692100 0.1 1016249
12:00+13ююв6866100 0.0 10151127
15:00+13ююв566550 0.1 10151005
18:00+12ююв566747 0.0 1014797
21:00+10з0178100 0.0 101510
15 апреля, чт
чт1500:00+9в228389 0.0 101515
03:00+9вюв2383100 0.0 101561
06:00+8в3490100 0.0 101562
09:00+11в4678100 0.1 1015393
12:00+14юв336086 1.6 1014853
15:00+16в234787 2.0 10131813
18:00+15всв355999 0.5 1012393
21:00+11в2372100 1.2 101345
16 апреля, пт
пт1600:00+11в227492 0.1 101320
03:00+9вюв228144 0.1 101329
06:00+8всв239198 0.1 101350
09:00+10в4688100 0.3 1014419
12:00+10св259170 0.9 1014250
15:00+13в4667100 1.6 1014900
18:00+10вюв4594100 7.0 1015294
21:00+9св239087 9.2 101855
17 апреля, сб
сб1700:00+8ссв2291100 0.0 101933
03:00+8ссв3692100 0.0 1019107
06:00+8ссв3698100 0.4 1019152
09:00+9св61291100 1.2 1020541
12:00+11всв81282100 0.2 1021887
15:00+13всв81372100 0.3 10221332
18:00+13всв8147152 0.0 10231073
21:00+11в81467100 0.0 1024829